Data supplied by UK-AIR on 5/4/2008
All Data GMT hour ending 
Status: R =Ratified P=Provisional,P*=As supplied
,,Camden Kerbside,,,,,,,,,,,,,,,,,,,,,,,
Date,time,"PM10 particulate matter (Hourly measured)",status,unit,"Nitric oxide",status,unit,"Nitrogen dioxide",status,unit,"Nitrogen oxides as nitrogen dioxide",status,unit
 
01-01-2002,01:00,65,R,ugm-3 (GRAV EQ),220,R,ugm-3,84,R,ugm-3,420,R,ugm-3
01-01-2002,02:00,81,R,ugm-3 (GRAV EQ),219,R,ugm-3,84,R,ugm-3,418,R,ugm-3
01-01-2002,03:00,87,R,ugm-3 (GRAV EQ),245,R,ugm-3,86,R,ugm-3,460,R,ugm-3
01-01-2002,04:00,82,R,ugm-3 (GRAV EQ),250,R,ugm-3,86,R,ugm-3,468,R,ugm-3
01-01-2002,05:00,82,R,ugm-3 (GRAV EQ),194,R,ugm-3,76,R,ugm-3,372,R,ugm-3
01-01-2002,06:00,65,R,ugm-3 (GRAV EQ),179,R,ugm-3,73,R,ugm-3,346,R,ugm-3
01-01-2002,07:00,56,R,ugm-3 (GRAV EQ),160,R,ugm-3,73,R,ugm-3,317,R,ugm-3
01-01-2002,08:00,57,R,ugm-3 (GRAV EQ),216,R,ugm-3,88,R,ugm-3,418,R,ugm-3
01-01-2002,09:00,60,R,ugm-3 (GRAV EQ),236,R,ugm-3,94,R,ugm-3,455,R,ugm-3
01-01-2002,10:00,59,R,ugm-3 (GRAV EQ),224,R,ugm-3,99,R,ugm-3,441,R,ugm-3
01-01-2002,11:00,57,R,ugm-3 (GRAV EQ),183,R,ugm-3,105,R,ugm-3,384,R,ugm-3
01-01-2002,12:00,62,R,ugm-3 (GRAV EQ),286,R,ugm-3,130,R,ugm-3,567,R,ugm-3
01-01-2002,13:00,47,R,ugm-3 (GRAV EQ),205,R,ugm-3,118,R,ugm-3,432,R,ugm-3
01-01-2002,14:00,36,R,ugm-3 (GRAV EQ),166,R,ugm-3,109,R,ugm-3,363,R,ugm-3
01-01-2002,15:00,35,R,ugm-3 (GRAV EQ),151,R,ugm-3,92,R,ugm-3,323,R,ugm-3
01-01-2002,16:00,26,R,ugm-3 (GRAV EQ),131,R,ugm-3,92,R,ugm-3,292,R,ugm-3
01-01-2002,17:00,29,R,ugm-3 (GRAV EQ),195,R,ugm-3,105,R,ugm-3,403,R,ugm-3
01-01-2002,18:00,25,R,ugm-3 (GRAV EQ),155,R,ugm-3,86,R,ugm-3,323,R,ugm-3
01-01-2002,19:00,23,R,ugm-3 (GRAV EQ),141,R,ugm-3,86,R,ugm-3,302,R,ugm-3
01-01-2002,20:00,22,R,ugm-3 (GRAV EQ),109,R,ugm-3,84,R,ugm-3,250,R,ugm-3
01-01-2002,21:00,18,R,ugm-3 (GRAV EQ),100,R,ugm-3,82,R,ugm-3,235,R,ugm-3
01-01-2002,22:00,21,R,ugm-3 (GRAV EQ),120,R,ugm-3,80,R,ugm-3,264,R,ugm-3
01-01-2002,23:00,18,R,ugm-3 (GRAV EQ),126,R,ugm-3,76,R,ugm-3,269,R,ugm-3
01-01-2002,24:00,20,R,ugm-3 (GRAV EQ),110,R,ugm-3,78,R,ugm-3,246,R,ugm-3
02-01-2002,01:00,36,R,ugm-3 (GRAV EQ),231,R,ugm-3,97,R,ugm-3,451,R,ugm-3
02-01-2002,02:00,44,R,ugm-3 (GRAV EQ),195,R,ugm-3,86,R,ugm-3,384,R,ugm-3
02-01-2002,03:00,43,R,ugm-3 (GRAV EQ),86,R,ugm-3,69,R,ugm-3,201,R,ugm-3
02-01-2002,04:00,22,R,ugm-3 (GRAV EQ),54,R,ugm-3,65,R,ugm-3,147,R,ugm-3
02-01-2002,05:00,18,R,ugm-3 (GRAV EQ),44,R,ugm-3,63,R,ugm-3,130,R,ugm-3
02-01-2002,06:00,17,R,ugm-3 (GRAV EQ),50,R,ugm-3,61,R,ugm-3,138,R,ugm-3
02-01-2002,07:00,14,R,ugm-3 (GRAV EQ),89,R,ugm-3,71,R,ugm-3,206,R,ugm-3
02-01-2002,08:00,17,R,ugm-3 (GRAV EQ),109,R,ugm-3,74,R,ugm-3,241,R,ugm-3
02-01-2002,09:00,21,R,ugm-3 (GRAV EQ),131,R,ugm-3,78,R,ugm-3,279,R,ugm-3
02-01-2002,10:00,23,R,ugm-3 (GRAV EQ),144,R,ugm-3,80,R,ugm-3,300,R,ugm-3
02-01-2002,11:00,22,R,ugm-3 (GRAV EQ),135,R,ugm-3,82,R,ugm-3,288,R,ugm-3
02-01-2002,12:00,25,R,ugm-3 (GRAV EQ),140,R,ugm-3,84,R,ugm-3,298,R,ugm-3
02-01-2002,13:00,23,R,ugm-3 (GRAV EQ),113,R,ugm-3,78,R,ugm-3,250,R,ugm-3
02-01-2002,14:00,23,R,ugm-3 (GRAV EQ),101,R,ugm-3,82,R,ugm-3,237,R,ugm-3
02-01-2002,15:00,26,R,ugm-3 (GRAV EQ),105,R,ugm-3,82,R,ugm-3,243,R,ugm-3
02-01-2002,16:00,29,R,ugm-3 (GRAV EQ),124,R,ugm-3,88,R,ugm-3,277,R,ugm-3
02-01-2002,17:00,26,R,ugm-3 (GRAV EQ),134,R,ugm-3,84,R,ugm-3,288,R,ugm-3
02-01-2002,18:00,29,R,ugm-3 (GRAV EQ),135,R,ugm-3,80,R,ugm-3,287,R,ugm-3
02-01-2002,19:00,33,R,ugm-3 (GRAV EQ),135,R,ugm-3,82,R,ugm-3,288,R,ugm-3
02-01-2002,20:00,36,R,ugm-3 (GRAV EQ),104,R,ugm-3,84,R,ugm-3,243,R,ugm-3
02-01-2002,21:00,31,R,ugm-3 (GRAV EQ),69,R,ugm-3,80,R,ugm-3,185,R,ugm-3
02-01-2002,22:00,27,R,ugm-3 (GRAV EQ),50,R,ugm-3,78,R,ugm-3,155,R,ugm-3
02-01-2002,23:00,26,R,ugm-3 (GRAV EQ),46,R,ugm-3,78,R,ugm-3,149,R,ugm-3
02-01-2002,24:00,27,R,ugm-3 (GRAV EQ),49,R,ugm-3,78,R,ugm-3,153,R,ugm-3
03-01-2002,01:00,25,R,ugm-3 (GRAV EQ),25,R,ugm-3,73,R,ugm-3,111,R,ugm-3
03-01-2002,02:00,22,R,ugm-3 (GRAV EQ),10,R,ugm-3,65,R,ugm-3,80,R,ugm-3
03-01-2002,03:00,22,R,ugm-3 (GRAV EQ),19,R,ugm-3,69,R,ugm-3,97,R,ugm-3
03-01-2002,04:00,20,R,ugm-3 (GRAV EQ),19,R,ugm-3,69,R,ugm-3,97,R,ugm-3
03-01-2002,05:00,20,R,ugm-3 (GRAV EQ),30,R,ugm-3,71,R,ugm-3,117,R,ugm-3
03-01-2002,06:00,18,R,ugm-3 (GRAV EQ),44,R,ugm-3,71,R,ugm-3,138,R,ugm-3
03-01-2002,07:00,17,R,ugm-3 (GRAV EQ),76,R,ugm-3,76,R,ugm-3,193,R,ugm-3
03-01-2002,08:00,18,R,ugm-3 (GRAV EQ),98,R,ugm-3,78,R,ugm-3,227,R,ugm-3
03-01-2002,09:00,23,R,ugm-3 (GRAV EQ),100,R,ugm-3,76,R,ugm-3,229,R,ugm-3
03-01-2002,10:00,27,R,ugm-3 (GRAV EQ),111,R,ugm-3,71,R,ugm-3,241,R,ugm-3
03-01-2002,11:00,25,R,ugm-3 (GRAV EQ),89,R,ugm-3,69,R,ugm-3,204,R,ugm-3
03-01-2002,12:00,23,R,ugm-3 (GRAV EQ),93,R,ugm-3,65,R,ugm-3,206,R,ugm-3
03-01-2002,13:00,27,R,ugm-3 (GRAV EQ),124,R,ugm-3,69,R,ugm-3,258,R,ugm-3
03-01-2002,14:00,26,R,ugm-3 (GRAV EQ),118,R,ugm-3,71,R,ugm-3,250,R,ugm-3
03-01-2002,15:00,26,R,ugm-3 (GRAV EQ),100,R,ugm-3,73,R,ugm-3,225,R,ugm-3
03-01-2002,16:00,25,R,ugm-3 (GRAV EQ),105,R,ugm-3,73,R,ugm-3,233,R,ugm-3
03-01-2002,17:00,26,R,ugm-3 (GRAV EQ),114,R,ugm-3,76,R,ugm-3,250,R,ugm-3
03-01-2002,18:00,25,R,ugm-3 (GRAV EQ),94,R,ugm-3,73,R,ugm-3,216,R,ugm-3
03-01-2002,19:00,26,R,ugm-3 (GRAV EQ),89,R,ugm-3,71,R,ugm-3,206,R,ugm-3
03-01-2002,20:00,26,R,ugm-3 (GRAV EQ),86,R,ugm-3,73,R,ugm-3,204,R,ugm-3
03-01-2002,21:00,26,R,ugm-3 (GRAV EQ),70,R,ugm-3,71,R,ugm-3,178,R,ugm-3
03-01-2002,22:00,25,R,ugm-3 (GRAV EQ),61,R,ugm-3,73,R,ugm-3,166,R,ugm-3
03-01-2002,23:00,27,R,ugm-3 (GRAV EQ),101,R,ugm-3,80,R,ugm-3,235,R,ugm-3
03-01-2002,24:00,26,R,ugm-3 (GRAV EQ),84,R,ugm-3,76,R,ugm-3,204,R,ugm-3
04-01-2002,01:00,22,R,ugm-3 (GRAV EQ),63,R,ugm-3,73,R,ugm-3,168,R,ugm-3
04-01-2002,02:00,21,R,ugm-3 (GRAV EQ),53,R,ugm-3,71,R,ugm-3,151,R,ugm-3
04-01-2002,03:00,22,R,ugm-3 (GRAV EQ),50,R,ugm-3,71,R,ugm-3,147,R,ugm-3
04-01-2002,04:00,22,R,ugm-3 (GRAV EQ),45,R,ugm-3,67,R,ugm-3,136,R,ugm-3
04-01-2002,05:00,23,R,ugm-3 (GRAV EQ),45,R,ugm-3,67,R,ugm-3,136,R,ugm-3
04-01-2002,06:00,23,R,ugm-3 (GRAV EQ),59,R,ugm-3,67,R,ugm-3,157,R,ugm-3
04-01-2002,07:00,26,R,ugm-3 (GRAV EQ),91,R,ugm-3,76,R,ugm-3,216,R,ugm-3
04-01-2002,08:00,30,R,ugm-3 (GRAV EQ),126,R,ugm-3,80,R,ugm-3,273,R,ugm-3
04-01-2002,09:00,36,R,ugm-3 (GRAV EQ),209,R,ugm-3,92,R,ugm-3,411,R,ugm-3
04-01-2002,10:00,44,R,ugm-3 (GRAV EQ),254,R,ugm-3,94,R,ugm-3,481,R,ugm-3
04-01-2002,11:00,43,R,ugm-3 (GRAV EQ),225,R,ugm-3,82,R,ugm-3,426,R,ugm-3
04-01-2002,12:00,36,R,ugm-3 (GRAV EQ),204,R,ugm-3,80,R,ugm-3,392,R,ugm-3
04-01-2002,13:00,44,R,ugm-3 (GRAV EQ),215,R,ugm-3,88,R,ugm-3,416,R,ugm-3
04-01-2002,14:00,39,R,ugm-3 (GRAV EQ),159,R,ugm-3,73,R,ugm-3,315,R,ugm-3
04-01-2002,15:00,39,R,ugm-3 (GRAV EQ),194,R,ugm-3,78,R,ugm-3,374,R,ugm-3
04-01-2002,16:00,42,R,ugm-3 (GRAV EQ),209,R,ugm-3,78,R,ugm-3,397,R,ugm-3
04-01-2002,17:00,42,R,ugm-3 (GRAV EQ),186,R,ugm-3,74,R,ugm-3,359,R,ugm-3
04-01-2002,18:00,42,R,ugm-3 (GRAV EQ),206,R,ugm-3,73,R,ugm-3,388,R,ugm-3
04-01-2002,19:00,46,R,ugm-3 (GRAV EQ),233,R,ugm-3,73,R,ugm-3,428,R,ugm-3
04-01-2002,20:00,47,R,ugm-3 (GRAV EQ),230,R,ugm-3,69,R,ugm-3,420,R,ugm-3
04-01-2002,21:00,44,R,ugm-3 (GRAV EQ),200,R,ugm-3,71,R,ugm-3,376,R,ugm-3
04-01-2002,22:00,44,R,ugm-3 (GRAV EQ),199,R,ugm-3,71,R,ugm-3,374,R,ugm-3
04-01-2002,23:00,42,R,ugm-3 (GRAV EQ),180,R,ugm-3,71,R,ugm-3,346,R,ugm-3
04-01-2002,24:00,43,R,ugm-3 (GRAV EQ),191,R,ugm-3,71,R,ugm-3,363,R,ugm-3
05-01-2002,01:00,42,R,ugm-3 (GRAV EQ),144,R,ugm-3,59,R,ugm-3,279,R,ugm-3
05-01-2002,02:00,42,R,ugm-3 (GRAV EQ),116,R,ugm-3,55,R,ugm-3,233,R,ugm-3
05-01-2002,03:00,39,R,ugm-3 (GRAV EQ),121,R,ugm-3,53,R,ugm-3,239,R,ugm-3
05-01-2002,04:00,35,R,ugm-3 (GRAV EQ),74,R,ugm-3,52,R,ugm-3,164,R,ugm-3
05-01-2002,05:00,31,R,ugm-3 (GRAV EQ),55,R,ugm-3,48,R,ugm-3,132,R,ugm-3
05-01-2002,06:00,33,R,ugm-3 (GRAV EQ),74,R,ugm-3,48,R,ugm-3,160,R,ugm-3
05-01-2002,07:00,36,R,ugm-3 (GRAV EQ),86,R,ugm-3,53,R,ugm-3,185,R,ugm-3
05-01-2002,08:00,42,R,ugm-3 (GRAV EQ),115,R,ugm-3,59,R,ugm-3,235,R,ugm-3
05-01-2002,09:00,44,R,ugm-3 (GRAV EQ),148,R,ugm-3,63,R,ugm-3,288,R,ugm-3
05-01-2002,10:00,48,R,ugm-3 (GRAV EQ),181,R,ugm-3,69,R,ugm-3,346,R,ugm-3
05-01-2002,11:00,51,R,ugm-3 (GRAV EQ),185,R,ugm-3,67,R,ugm-3,350,R,ugm-3
05-01-2002,12:00,49,R,ugm-3 (GRAV EQ),190,R,ugm-3,67,R,ugm-3,357,R,ugm-3
05-01-2002,13:00,47,R,ugm-3 (GRAV EQ),153,R,ugm-3,65,R,ugm-3,298,R,ugm-3
05-01-2002,14:00,43,R,ugm-3 (GRAV EQ),170,R,ugm-3,69,R,ugm-3,329,R,ugm-3
05-01-2002,15:00,39,R,ugm-3 (GRAV EQ),153,R,ugm-3,67,R,ugm-3,300,R,ugm-3
05-01-2002,16:00,39,R,ugm-3 (GRAV EQ),166,R,ugm-3,74,R,ugm-3,329,R,ugm-3
05-01-2002,17:00,35,R,ugm-3 (GRAV EQ),174,R,ugm-3,76,R,ugm-3,342,R,ugm-3
05-01-2002,18:00,35,R,ugm-3 (GRAV EQ),173,R,ugm-3,84,R,ugm-3,348,R,ugm-3
05-01-2002,19:00,35,R,ugm-3 (GRAV EQ),149,R,ugm-3,76,R,ugm-3,304,R,ugm-3
05-01-2002,20:00,34,R,ugm-3 (GRAV EQ),84,R,ugm-3,69,R,ugm-3,197,R,ugm-3
05-01-2002,21:00,29,R,ugm-3 (GRAV EQ),66,R,ugm-3,67,R,ugm-3,168,R,ugm-3
05-01-2002,22:00,33,R,ugm-3 (GRAV EQ),88,R,ugm-3,67,R,ugm-3,201,R,ugm-3
05-01-2002,23:00,27,R,ugm-3 (GRAV EQ),50,R,ugm-3,57,R,ugm-3,134,R,ugm-3
05-01-2002,24:00,25,R,ugm-3 (GRAV EQ),54,R,ugm-3,55,R,ugm-3,138,R,ugm-3
06-01-2002,01:00,25,R,ugm-3 (GRAV EQ),40,R,ugm-3,50,R,ugm-3,111,R,ugm-3
06-01-2002,02:00,26,R,ugm-3 (GRAV EQ),35,R,ugm-3,46,R,ugm-3,99,R,ugm-3
06-01-2002,03:00,30,R,ugm-3 (GRAV EQ),39,R,ugm-3,46,R,ugm-3,105,R,ugm-3
06-01-2002,04:00,30,R,ugm-3 (GRAV EQ),56,R,ugm-3,46,R,ugm-3,132,R,ugm-3
06-01-2002,05:00,25,R,ugm-3 (GRAV EQ),31,R,ugm-3,42,R,ugm-3,90,R,ugm-3
06-01-2002,06:00,22,R,ugm-3 (GRAV EQ),53,R,ugm-3,44,R,ugm-3,124,R,ugm-3
06-01-2002,07:00,21,R,ugm-3 (GRAV EQ),50,R,ugm-3,48,R,ugm-3,124,R,ugm-3
06-01-2002,08:00,20,R,ugm-3 (GRAV EQ),78,R,ugm-3,52,R,ugm-3,170,R,ugm-3
06-01-2002,09:00,22,R,ugm-3 (GRAV EQ),170,R,ugm-3,69,R,ugm-3,329,R,ugm-3
06-01-2002,10:00,20,R,ugm-3 (GRAV EQ),111,R,ugm-3,59,R,ugm-3,229,R,ugm-3
06-01-2002,11:00,25,R,ugm-3 (GRAV EQ),168,R,ugm-3,69,R,ugm-3,325,R,ugm-3
06-01-2002,12:00,23,R,ugm-3 (GRAV EQ),160,R,ugm-3,63,R,ugm-3,308,R,ugm-3
06-01-2002,13:00,26,R,ugm-3 (GRAV EQ),158,R,ugm-3,65,R,ugm-3,306,R,ugm-3
06-01-2002,14:00,33,R,ugm-3 (GRAV EQ),144,R,ugm-3,65,R,ugm-3,285,R,ugm-3
06-01-2002,15:00,26,R,ugm-3 (GRAV EQ),130,R,ugm-3,61,R,ugm-3,260,R,ugm-3
06-01-2002,16:00,33,R,ugm-3 (GRAV EQ),199,R,ugm-3,73,R,ugm-3,376,R,ugm-3
06-01-2002,17:00,29,R,ugm-3 (GRAV EQ),139,R,ugm-3,82,R,ugm-3,294,R,ugm-3
06-01-2002,18:00,22,R,ugm-3 (GRAV EQ),106,R,ugm-3,78,R,ugm-3,241,R,ugm-3
06-01-2002,19:00,25,R,ugm-3 (GRAV EQ),111,R,ugm-3,80,R,ugm-3,250,R,ugm-3
06-01-2002,20:00,20,R,ugm-3 (GRAV EQ),74,R,ugm-3,67,R,ugm-3,180,R,ugm-3
06-01-2002,21:00,18,R,ugm-3 (GRAV EQ),78,R,ugm-3,59,R,ugm-3,178,R,ugm-3
06-01-2002,22:00,18,R,ugm-3 (GRAV EQ),73,R,ugm-3,61,R,ugm-3,172,R,ugm-3
06-01-2002,23:00,18,R,ugm-3 (GRAV EQ),36,R,ugm-3,53,R,ugm-3,109,R,ugm-3
06-01-2002,24:00,20,R,ugm-3 (GRAV EQ),45,R,ugm-3,57,R,ugm-3,126,R,ugm-3
07-01-2002,01:00,14,R,ugm-3 (GRAV EQ),34,R,ugm-3,57,R,ugm-3,109,R,ugm-3
07-01-2002,02:00,12,R,ugm-3 (GRAV EQ),16,R,ugm-3,52,R,ugm-3,76,R,ugm-3
07-01-2002,03:00,10,R,ugm-3 (GRAV EQ),6,R,ugm-3,32,R,ugm-3,42,R,ugm-3
07-01-2002,04:00,8,R,ugm-3 (GRAV EQ),16,R,ugm-3,42,R,ugm-3,67,R,ugm-3
07-01-2002,05:00,12,R,ugm-3 (GRAV EQ),26,R,ugm-3,50,R,ugm-3,90,R,ugm-3
07-01-2002,06:00,12,R,ugm-3 (GRAV EQ),19,R,ugm-3,42,R,ugm-3,71,R,ugm-3
07-01-2002,07:00,23,R,ugm-3 (GRAV EQ),174,R,ugm-3,84,R,ugm-3,350,R,ugm-3
07-01-2002,08:00,36,R,ugm-3 (GRAV EQ),196,R,ugm-3,86,R,ugm-3,386,R,ugm-3
07-01-2002,09:00,34,R,ugm-3 (GRAV EQ),309,R,ugm-3,105,R,ugm-3,577,R,ugm-3
07-01-2002,10:00,43,R,ugm-3 (GRAV EQ),389,R,ugm-3,115,R,ugm-3,709,R,ugm-3
07-01-2002,11:00,29,R,ugm-3 (GRAV EQ),194,R,ugm-3,86,R,ugm-3,382,R,ugm-3
07-01-2002,12:00,40,R,ugm-3 (GRAV EQ),421,R,ugm-3,122,R,ugm-3,766,R,ugm-3
07-01-2002,13:00,48,R,ugm-3 (GRAV EQ),264,R,ugm-3,94,R,ugm-3,497,R,ugm-3
07-01-2002,14:00,29,R,ugm-3 (GRAV EQ),199,R,ugm-3,71,R,ugm-3,374,R,ugm-3
07-01-2002,15:00,34,R,ugm-3 (GRAV EQ),198,R,ugm-3,82,R,ugm-3,384,R,ugm-3
07-01-2002,16:00,36,R,ugm-3 (GRAV EQ),204,R,ugm-3,86,R,ugm-3,397,R,ugm-3
07-01-2002,17:00,38,R,ugm-3 (GRAV EQ),186,R,ugm-3,84,R,ugm-3,369,R,ugm-3
07-01-2002,18:00,38,R,ugm-3 (GRAV EQ),169,R,ugm-3,69,R,ugm-3,327,R,ugm-3
07-01-2002,19:00,39,R,ugm-3 (GRAV EQ),164,R,ugm-3,73,R,ugm-3,323,R,ugm-3
07-01-2002,20:00,40,R,ugm-3 (GRAV EQ),189,R,ugm-3,76,R,ugm-3,365,R,ugm-3
07-01-2002,21:00,33,R,ugm-3 (GRAV EQ),124,R,ugm-3,73,R,ugm-3,262,R,ugm-3
07-01-2002,22:00,30,R,ugm-3 (GRAV EQ),114,R,ugm-3,73,R,ugm-3,246,R,ugm-3
07-01-2002,23:00,30,R,ugm-3 (GRAV EQ),136,R,ugm-3,76,R,ugm-3,285,R,ugm-3
07-01-2002,24:00,33,R,ugm-3 (GRAV EQ),110,R,ugm-3,73,R,ugm-3,241,R,ugm-3
08-01-2002,01:00,34,R,ugm-3 (GRAV EQ),105,R,ugm-3,73,R,ugm-3,233,R,ugm-3
08-01-2002,02:00,30,R,ugm-3 (GRAV EQ),71,R,ugm-3,71,R,ugm-3,180,R,ugm-3
08-01-2002,03:00,38,R,ugm-3 (GRAV EQ),118,R,ugm-3,69,R,ugm-3,248,R,ugm-3
08-01-2002,04:00,34,R,ugm-3 (GRAV EQ),80,R,ugm-3,61,R,ugm-3,183,R,ugm-3
08-01-2002,05:00,27,R,ugm-3 (GRAV EQ),61,R,ugm-3,61,R,ugm-3,155,R,ugm-3
08-01-2002,06:00,27,R,ugm-3 (GRAV EQ),55,R,ugm-3,55,R,ugm-3,139,R,ugm-3
08-01-2002,07:00,29,R,ugm-3 (GRAV EQ),100,R,ugm-3,65,R,ugm-3,218,R,ugm-3
08-01-2002,08:00,30,R,ugm-3 (GRAV EQ),136,R,ugm-3,76,R,ugm-3,285,R,ugm-3
08-01-2002,09:00,33,R,ugm-3 (GRAV EQ),150,R,ugm-3,73,R,ugm-3,302,R,ugm-3
08-01-2002,10:00,31,R,ugm-3 (GRAV EQ),123,R,ugm-3,67,R,ugm-3,254,R,ugm-3
08-01-2002,11:00,27,R,ugm-3 (GRAV EQ),84,R,ugm-3,65,R,ugm-3,193,R,ugm-3
08-01-2002,12:00,31,R,ugm-3 (GRAV EQ),69,R,ugm-3,63,R,ugm-3,168,R,ugm-3
08-01-2002,13:00,39,R,ugm-3 (GRAV EQ),84,R,ugm-3,65,R,ugm-3,193,R,ugm-3
08-01-2002,14:00,38,R,ugm-3 (GRAV EQ),91,R,ugm-3,69,R,ugm-3,208,R,ugm-3
08-01-2002,15:00,42,R,ugm-3 (GRAV EQ),99,R,ugm-3,67,R,ugm-3,218,R,ugm-3
08-01-2002,16:00,40,R,ugm-3 (GRAV EQ),98,R,ugm-3,69,R,ugm-3,218,R,ugm-3
08-01-2002,17:00,39,R,ugm-3 (GRAV EQ),109,R,ugm-3,71,R,ugm-3,237,R,ugm-3
08-01-2002,18:00,43,R,ugm-3 (GRAV EQ),145,R,ugm-3,76,R,ugm-3,298,R,ugm-3
08-01-2002,19:00,43,R,ugm-3 (GRAV EQ),151,R,ugm-3,78,R,ugm-3,309,R,ugm-3
08-01-2002,20:00,31,R,ugm-3 (GRAV EQ),101,R,ugm-3,71,R,ugm-3,225,R,ugm-3
08-01-2002,21:00,33,R,ugm-3 (GRAV EQ),125,R,ugm-3,71,R,ugm-3,262,R,ugm-3
08-01-2002,22:00,27,R,ugm-3 (GRAV EQ),105,R,ugm-3,69,R,ugm-3,229,R,ugm-3
08-01-2002,23:00,29,R,ugm-3 (GRAV EQ),105,R,ugm-3,65,R,ugm-3,225,R,ugm-3
08-01-2002,24:00,29,R,ugm-3 (GRAV EQ),114,R,ugm-3,63,R,ugm-3,237,R,ugm-3
09-01-2002,01:00,27,R,ugm-3 (GRAV EQ),61,R,ugm-3,55,R,ugm-3,149,R,ugm-3
09-01-2002,02:00,26,R,ugm-3 (GRAV EQ),50,R,ugm-3,53,R,ugm-3,130,R,ugm-3
09-01-2002,03:00,26,R,ugm-3 (GRAV EQ),58,R,ugm-3,55,R,ugm-3,143,R,ugm-3
09-01-2002,04:00,29,R,ugm-3 (GRAV EQ),74,R,ugm-3,59,R,ugm-3,172,R,ugm-3
09-01-2002,05:00,29,R,ugm-3 (GRAV EQ),80,R,ugm-3,59,R,ugm-3,181,R,ugm-3
09-01-2002,06:00,30,R,ugm-3 (GRAV EQ),96,R,ugm-3,61,R,ugm-3,208,R,ugm-3
09-01-2002,07:00,31,R,ugm-3 (GRAV EQ),166,R,ugm-3,73,R,ugm-3,327,R,ugm-3
09-01-2002,08:00,38,R,ugm-3 (GRAV EQ),229,R,ugm-3,86,R,ugm-3,435,R,ugm-3
09-01-2002,09:00,52,R,ugm-3 (GRAV EQ),303,R,ugm-3,92,R,ugm-3,554,R,ugm-3
09-01-2002,10:00,52,R,ugm-3 (GRAV EQ),196,R,ugm-3,80,R,ugm-3,380,R,ugm-3
09-01-2002,11:00,52,R,ugm-3 (GRAV EQ),164,R,ugm-3,73,R,ugm-3,323,R,ugm-3
09-01-2002,12:00,47,R,ugm-3 (GRAV EQ),155,R,ugm-3,74,R,ugm-3,311,R,ugm-3
09-01-2002,13:00,53,R,ugm-3 (GRAV EQ),184,R,ugm-3,76,R,ugm-3,357,R,ugm-3
09-01-2002,14:00,57,R,ugm-3 (GRAV EQ),189,R,ugm-3,80,R,ugm-3,369,R,ugm-3
09-01-2002,15:00,59,R,ugm-3 (GRAV EQ),,,,,,,,,
09-01-2002,16:00,,,,,,,,,,,,
09-01-2002,17:00,55,R,ugm-3 (GRAV EQ),251,R,ugm-3,94,R,ugm-3,478,R,ugm-3
09-01-2002,18:00,59,R,ugm-3 (GRAV EQ),288,R,ugm-3,94,R,ugm-3,533,R,ugm-3
09-01-2002,19:00,55,R,ugm-3 (GRAV EQ),284,R,ugm-3,94,R,ugm-3,527,R,ugm-3
09-01-2002,20:00,44,R,ugm-3 (GRAV EQ),189,R,ugm-3,78,R,ugm-3,367,R,ugm-3
09-01-2002,21:00,46,R,ugm-3 (GRAV EQ),188,R,ugm-3,80,R,ugm-3,367,R,ugm-3
09-01-2002,22:00,47,R,ugm-3 (GRAV EQ),188,R,ugm-3,82,R,ugm-3,369,R,ugm-3
09-01-2002,23:00,46,R,ugm-3 (GRAV EQ),175,R,ugm-3,82,R,ugm-3,350,R,ugm-3
09-01-2002,24:00,42,R,ugm-3 (GRAV EQ),138,R,ugm-3,74,R,ugm-3,285,R,ugm-3
10-01-2002,01:00,40,R,ugm-3 (GRAV EQ),128,R,ugm-3,69,R,ugm-3,264,R,ugm-3
10-01-2002,02:00,35,R,ugm-3 (GRAV EQ),75,R,ugm-3,63,R,ugm-3,178,R,ugm-3
10-01-2002,03:00,33,R,ugm-3 (GRAV EQ),41,R,ugm-3,55,R,ugm-3,118,R,ugm-3
10-01-2002,04:00,33,R,ugm-3 (GRAV EQ),43,R,ugm-3,53,R,ugm-3,118,R,ugm-3
10-01-2002,05:00,27,R,ugm-3 (GRAV EQ),30,R,ugm-3,55,R,ugm-3,101,R,ugm-3
10-01-2002,06:00,27,R,ugm-3 (GRAV EQ),70,R,ugm-3,65,R,ugm-3,172,R,ugm-3
10-01-2002,07:00,31,R,ugm-3 (GRAV EQ),130,R,ugm-3,69,R,ugm-3,267,R,ugm-3
10-01-2002,08:00,34,R,ugm-3 (GRAV EQ),201,R,ugm-3,86,R,ugm-3,393,R,ugm-3
10-01-2002,09:00,42,R,ugm-3 (GRAV EQ),265,R,ugm-3,84,R,ugm-3,489,R,ugm-3
10-01-2002,10:00,43,R,ugm-3 (GRAV EQ),224,R,ugm-3,88,R,ugm-3,430,R,ugm-3
10-01-2002,11:00,39,R,ugm-3 (GRAV EQ),184,R,ugm-3,80,R,ugm-3,361,R,ugm-3
10-01-2002,12:00,35,R,ugm-3 (GRAV EQ),164,R,ugm-3,82,R,ugm-3,332,R,ugm-3
10-01-2002,13:00,31,R,ugm-3 (GRAV EQ),130,R,ugm-3,76,R,ugm-3,275,R,ugm-3
10-01-2002,14:00,27,R,ugm-3 (GRAV EQ),108,R,ugm-3,73,R,ugm-3,237,R,ugm-3
10-01-2002,15:00,31,R,ugm-3 (GRAV EQ),130,R,ugm-3,80,R,ugm-3,279,R,ugm-3
10-01-2002,16:00,33,R,ugm-3 (GRAV EQ),166,R,ugm-3,92,R,ugm-3,346,R,ugm-3
10-01-2002,17:00,,,,144,R,ugm-3,84,R,ugm-3,304,R,ugm-3
10-01-2002,18:00,,,,144,R,ugm-3,82,R,ugm-3,302,R,ugm-3
10-01-2002,19:00,20,R,ugm-3 (GRAV EQ),100,R,ugm-3,76,R,ugm-3,229,R,ugm-3
10-01-2002,20:00,17,R,ugm-3 (GRAV EQ),119,R,ugm-3,76,R,ugm-3,258,R,ugm-3
10-01-2002,21:00,16,R,ugm-3 (GRAV EQ),114,R,ugm-3,80,R,ugm-3,254,R,ugm-3
10-01-2002,22:00,18,R,ugm-3 (GRAV EQ),106,R,ugm-3,80,R,ugm-3,243,R,ugm-3
10-01-2002,23:00,20,R,ugm-3 (GRAV EQ),99,R,ugm-3,74,R,ugm-3,225,R,ugm-3
10-01-2002,24:00,20,R,ugm-3 (GRAV EQ),85,R,ugm-3,71,R,ugm-3,201,R,ugm-3
11-01-2002,01:00,16,R,ugm-3 (GRAV EQ),50,R,ugm-3,65,R,ugm-3,141,R,ugm-3
11-01-2002,02:00,10,R,ugm-3 (GRAV EQ),14,R,ugm-3,50,R,ugm-3,71,R,ugm-3
11-01-2002,03:00,12,R,ugm-3 (GRAV EQ),9,R,ugm-3,38,R,ugm-3,52,R,ugm-3
11-01-2002,04:00,17,R,ugm-3 (GRAV EQ),40,R,ugm-3,53,R,ugm-3,115,R,ugm-3
11-01-2002,05:00,18,R,ugm-3 (GRAV EQ),28,R,ugm-3,52,R,ugm-3,94,R,ugm-3
11-01-2002,06:00,17,R,ugm-3 (GRAV EQ),25,R,ugm-3,48,R,ugm-3,86,R,ugm-3
11-01-2002,07:00,20,R,ugm-3 (GRAV EQ),59,R,ugm-3,55,R,ugm-3,145,R,ugm-3
11-01-2002,08:00,22,R,ugm-3 (GRAV EQ),106,R,ugm-3,65,R,ugm-3,227,R,ugm-3
11-01-2002,09:00,23,R,ugm-3 (GRAV EQ),131,R,ugm-3,69,R,ugm-3,269,R,ugm-3
11-01-2002,10:00,30,R,ugm-3 (GRAV EQ),185,R,ugm-3,71,R,ugm-3,353,R,ugm-3
11-01-2002,11:00,34,R,ugm-3 (GRAV EQ),164,R,ugm-3,71,R,ugm-3,321,R,ugm-3
11-01-2002,12:00,27,R,ugm-3 (GRAV EQ),96,R,ugm-3,59,R,ugm-3,206,R,ugm-3
11-01-2002,13:00,33,R,ugm-3 (GRAV EQ),153,R,ugm-3,71,R,ugm-3,304,R,ugm-3
11-01-2002,14:00,40,R,ugm-3 (GRAV EQ),180,R,ugm-3,80,R,ugm-3,355,R,ugm-3
11-01-2002,15:00,39,R,ugm-3 (GRAV EQ),180,R,ugm-3,82,R,ugm-3,357,R,ugm-3
11-01-2002,16:00,36,R,ugm-3 (GRAV EQ),179,R,ugm-3,84,R,ugm-3,357,R,ugm-3
11-01-2002,17:00,43,R,ugm-3 (GRAV EQ),246,R,ugm-3,96,R,ugm-3,472,R,ugm-3
11-01-2002,18:00,53,R,ugm-3 (GRAV EQ),381,R,ugm-3,118,R,ugm-3,701,R,ugm-3
11-01-2002,19:00,52,R,ugm-3 (GRAV EQ),381,R,ugm-3,113,R,ugm-3,695,R,ugm-3
11-01-2002,20:00,40,R,ugm-3 (GRAV EQ),236,R,ugm-3,88,R,ugm-3,449,R,ugm-3
11-01-2002,21:00,34,R,ugm-3 (GRAV EQ),166,R,ugm-3,80,R,ugm-3,334,R,ugm-3
11-01-2002,22:00,33,R,ugm-3 (GRAV EQ),148,R,ugm-3,78,R,ugm-3,304,R,ugm-3
11-01-2002,23:00,26,R,ugm-3 (GRAV EQ),96,R,ugm-3,74,R,ugm-3,222,R,ugm-3
11-01-2002,24:00,23,R,ugm-3 (GRAV EQ),75,R,ugm-3,69,R,ugm-3,183,R,ugm-3
12-01-2002,01:00,21,R,ugm-3 (GRAV EQ),59,R,ugm-3,61,R,ugm-3,151,R,ugm-3
12-01-2002,02:00,17,R,ugm-3 (GRAV EQ),33,R,ugm-3,50,R,ugm-3,99,R,ugm-3
12-01-2002,03:00,16,R,ugm-3 (GRAV EQ),20,R,ugm-3,44,R,ugm-3,74,R,ugm-3
12-01-2002,04:00,14,R,ugm-3 (GRAV EQ),23,R,ugm-3,40,R,ugm-3,74,R,ugm-3
12-01-2002,05:00,16,R,ugm-3 (GRAV EQ),24,R,ugm-3,40,R,ugm-3,76,R,ugm-3
12-01-2002,06:00,14,R,ugm-3 (GRAV EQ),24,R,ugm-3,42,R,ugm-3,78,R,ugm-3
12-01-2002,07:00,18,R,ugm-3 (GRAV EQ),103,R,ugm-3,69,R,ugm-3,225,R,ugm-3
12-01-2002,08:00,23,R,ugm-3 (GRAV EQ),151,R,ugm-3,76,R,ugm-3,308,R,ugm-3
12-01-2002,09:00,29,R,ugm-3 (GRAV EQ),214,R,ugm-3,90,R,ugm-3,416,R,ugm-3
12-01-2002,10:00,29,R,ugm-3 (GRAV EQ),138,R,ugm-3,74,R,ugm-3,285,R,ugm-3
12-01-2002,11:00,31,R,ugm-3 (GRAV EQ),134,R,ugm-3,76,R,ugm-3,281,R,ugm-3
12-01-2002,12:00,25,R,ugm-3 (GRAV EQ),91,R,ugm-3,65,R,ugm-3,204,R,ugm-3
12-01-2002,13:00,23,R,ugm-3 (GRAV EQ),108,R,ugm-3,67,R,ugm-3,231,R,ugm-3
12-01-2002,14:00,25,R,ugm-3 (GRAV EQ),136,R,ugm-3,74,R,ugm-3,283,R,ugm-3
12-01-2002,15:00,23,R,ugm-3 (GRAV EQ),100,R,ugm-3,73,R,ugm-3,225,R,ugm-3
12-01-2002,16:00,22,R,ugm-3 (GRAV EQ),89,R,ugm-3,67,R,ugm-3,202,R,ugm-3
12-01-2002,17:00,22,R,ugm-3 (GRAV EQ),81,R,ugm-3,69,R,ugm-3,193,R,ugm-3
12-01-2002,18:00,25,R,ugm-3 (GRAV EQ),91,R,ugm-3,73,R,ugm-3,212,R,ugm-3
12-01-2002,19:00,31,R,ugm-3 (GRAV EQ),123,R,ugm-3,69,R,ugm-3,256,R,ugm-3
12-01-2002,20:00,30,R,ugm-3 (GRAV EQ),93,R,ugm-3,65,R,ugm-3,206,R,ugm-3
12-01-2002,21:00,31,R,ugm-3 (GRAV EQ),69,R,ugm-3,57,R,ugm-3,162,R,ugm-3
12-01-2002,22:00,30,R,ugm-3 (GRAV EQ),58,R,ugm-3,53,R,ugm-3,141,R,ugm-3
12-01-2002,23:00,30,R,ugm-3 (GRAV EQ),61,R,ugm-3,53,R,ugm-3,147,R,ugm-3
12-01-2002,24:00,31,R,ugm-3 (GRAV EQ),66,R,ugm-3,55,R,ugm-3,157,R,ugm-3
13-01-2002,01:00,33,R,ugm-3 (GRAV EQ),41,R,ugm-3,48,R,ugm-3,111,R,ugm-3
13-01-2002,02:00,34,R,ugm-3 (GRAV EQ),41,R,ugm-3,42,R,ugm-3,105,R,ugm-3
13-01-2002,03:00,31,R,ugm-3 (GRAV EQ),26,R,ugm-3,42,R,ugm-3,82,R,ugm-3
13-01-2002,04:00,29,R,ugm-3 (GRAV EQ),34,R,ugm-3,46,R,ugm-3,97,R,ugm-3
13-01-2002,05:00,23,R,ugm-3 (GRAV EQ),26,R,ugm-3,48,R,ugm-3,88,R,ugm-3
13-01-2002,06:00,16,R,ugm-3 (GRAV EQ),11,R,ugm-3,36,R,ugm-3,53,R,ugm-3
13-01-2002,07:00,25,R,ugm-3 (GRAV EQ),15,R,ugm-3,40,R,ugm-3,63,R,ugm-3
13-01-2002,08:00,38,R,ugm-3 (GRAV EQ),21,R,ugm-3,48,R,ugm-3,80,R,ugm-3
13-01-2002,09:00,46,R,ugm-3 (GRAV EQ),43,R,ugm-3,55,R,ugm-3,120,R,ugm-3
13-01-2002,10:00,40,R,ugm-3 (GRAV EQ),50,R,ugm-3,57,R,ugm-3,134,R,ugm-3
13-01-2002,11:00,42,R,ugm-3 (GRAV EQ),73,R,ugm-3,61,R,ugm-3,172,R,ugm-3
13-01-2002,12:00,35,R,ugm-3 (GRAV EQ),73,R,ugm-3,61,R,ugm-3,172,R,ugm-3
13-01-2002,13:00,30,R,ugm-3 (GRAV EQ),93,R,ugm-3,67,R,ugm-3,208,R,ugm-3
13-01-2002,14:00,29,R,ugm-3 (GRAV EQ),89,R,ugm-3,71,R,ugm-3,206,R,ugm-3
13-01-2002,15:00,27,R,ugm-3 (GRAV EQ),76,R,ugm-3,67,R,ugm-3,183,R,ugm-3
13-01-2002,16:00,34,R,ugm-3 (GRAV EQ),106,R,ugm-3,74,R,ugm-3,237,R,ugm-3
13-01-2002,17:00,35,R,ugm-3 (GRAV EQ),96,R,ugm-3,78,R,ugm-3,225,R,ugm-3
13-01-2002,18:00,34,R,ugm-3 (GRAV EQ),100,R,ugm-3,80,R,ugm-3,233,R,ugm-3
13-01-2002,19:00,34,R,ugm-3 (GRAV EQ),108,R,ugm-3,82,R,ugm-3,246,R,ugm-3
13-01-2002,20:00,34,R,ugm-3 (GRAV EQ),85,R,ugm-3,76,R,ugm-3,206,R,ugm-3
13-01-2002,21:00,36,R,ugm-3 (GRAV EQ),86,R,ugm-3,74,R,ugm-3,206,R,ugm-3
13-01-2002,22:00,34,R,ugm-3 (GRAV EQ),94,R,ugm-3,78,R,ugm-3,222,R,ugm-3
13-01-2002,23:00,34,R,ugm-3 (GRAV EQ),90,R,ugm-3,73,R,ugm-3,210,R,ugm-3
13-01-2002,24:00,25,R,ugm-3 (GRAV EQ),50,R,ugm-3,59,R,ugm-3,136,R,ugm-3
14-01-2002,01:00,22,R,ugm-3 (GRAV EQ),26,R,ugm-3,52,R,ugm-3,92,R,ugm-3
14-01-2002,02:00,22,R,ugm-3 (GRAV EQ),19,R,ugm-3,48,R,ugm-3,76,R,ugm-3
14-01-2002,03:00,21,R,ugm-3 (GRAV EQ),10,R,ugm-3,40,R,ugm-3,55,R,ugm-3
14-01-2002,04:00,21,R,ugm-3 (GRAV EQ),11,R,ugm-3,40,R,ugm-3,57,R,ugm-3
14-01-2002,05:00,20,R,ugm-3 (GRAV EQ),15,R,ugm-3,38,R,ugm-3,61,R,ugm-3
14-01-2002,06:00,21,R,ugm-3 (GRAV EQ),36,R,ugm-3,44,R,ugm-3,99,R,ugm-3
14-01-2002,07:00,25,R,ugm-3 (GRAV EQ),120,R,ugm-3,69,R,ugm-3,252,R,ugm-3
14-01-2002,08:00,34,R,ugm-3 (GRAV EQ),183,R,ugm-3,84,R,ugm-3,363,R,ugm-3
14-01-2002,09:00,36,R,ugm-3 (GRAV EQ),198,R,ugm-3,82,R,ugm-3,384,R,ugm-3
14-01-2002,10:00,26,R,ugm-3 (GRAV EQ),103,R,ugm-3,71,R,ugm-3,227,R,ugm-3
14-01-2002,11:00,21,R,ugm-3 (GRAV EQ),90,R,ugm-3,76,R,ugm-3,214,R,ugm-3
14-01-2002,12:00,23,R,ugm-3 (GRAV EQ),96,R,ugm-3,73,R,ugm-3,220,R,ugm-3
14-01-2002,13:00,30,R,ugm-3 (GRAV EQ),101,R,ugm-3,78,R,ugm-3,233,R,ugm-3
14-01-2002,14:00,33,R,ugm-3 (GRAV EQ),89,R,ugm-3,71,R,ugm-3,206,R,ugm-3
14-01-2002,15:00,33,R,ugm-3 (GRAV EQ),95,R,ugm-3,76,R,ugm-3,222,R,ugm-3